Find Starlink 32451

NORAD ID: 61857 Int'l Des: 2024-202 Owner: SPXS Country: US Constellation: starlink operational
LEOCIRCULAR

Current View

Loading 3D Globe...

About Starlink 32451

Starlink 32451 (NORAD 61857) is a starlink constellation satellite (v2 mini) launched Nov 7, 2024 by SPXS of US. It operates in LEO, CIRCULAR orbit with a mass of 730.00 kg.

Upcoming Passes

Passes for default location (London). Set your location on the main map for personalized predictions.

Altitude History

Loading altitude history...

Two-Line Element Set

1 61857U 24202N 26237.42438433 .00000307 00000-0 20695-4 0 9994
2 61857 43.0035 5.0414 0001182 232.7738 127.3006 15.27575915101145
Epoch: Aug 25, 2026 • Age: 32 hours

Current Status

Altitude 484.3 km
Apogee / Perigee N/A
Velocity 7.63 km/s
Sub-Earth Point 32.00°N, 111.28°W
Launch Date Nov 7, 2024
Age 1.7 years
Type internet

Technical Details

Classification Payload
Mass 730.00 kg
Dry Mass 700.00 kg
Total Mass 730.00 kg
Length 0.30 m
Diameter 4.10 m
Span 29.00 m
Shape Box + pan
Manufacturer SPXS
Bus Type Starlink V2M
Phase Status In Orbit
Owner/State SPXS/US

Most Searched